STARLINK-4274, 52865

Orbit data source: Space-Track

STARLINK-4274, 52865 is a payload satellite owned by SpaceX/Seattle (US) in LEO that was launched on Fri, 17 Jun 2022 UTC via an FALCON 9 launch vehicle from the Air Force Eastern Test Range (AFETR). Payload-class satellites include a variety of spacecraft equipped with specific instruments for various scientific and technological missions. These include communications satellites like Starlink; space stations such as the ISS; scientific satellites like the Hubble; Earth observation satellites from companies like Planet Labs, Umbra, and HawkEye 360; GPS; miniature CubeSats for education and research; and military/defense satellites.

Loading next visibility...
Identifier
52865, 2022-062AM
Orbit
LEO
Country
Flag of USUS
Related business
Manufacturer
SpaceX/Seattle
Mission
Operational Commercial Communications
Bus & Motor
STARLINK, Unknown motor
Mass
297 kg wet, ~275 kg dry
Launch date (UTC)
2022-06-17 (3 years ago)
Launch vehicle
FALCON 9
Launch site
Air Force Eastern Test Range (AFETR)
Object type
Payload
Rocket body
Debris
Shape & HBR
Box + 1 Pan, 10.1 m
Radar Cross Section
13.562 m², Large (>1 m²)

Expand to show TLE details & history
Last TLE update: 16 hours ago

TLE from 16 hours ago
0 STARLINK-4274
1 52865U 22062AM  25348.93428279 -.00007364  00000-0 -44496-3 0  9996
2 52865  53.2168  44.6021 0001571 108.9796 251.1366 15.08849162193139
Epoch: 2025-12-14T22:25Z
TLE epoch observation values (Epoch: 2025-12-14T22:25:22.033Z)
Latitude
-0.00004°
Longitude
-15.57981°
Altitude
540.964 km
Speed
7.593 km/s
True Right ascension
02h 58m 24s
True Declination
0° 00' 00"
Sunlit
Object was in full shadow at epoch
Visualization orbit readout
Latitude
Unknown
Longitude
Unknown
Altitude
Unknown
Speed
Unknown
Apparent Right ascension
Unknown
Apparent Declination
Unknown
Sunlit
N/A
Visualization observer readout
Local Sidereal Time
13:24:49
Azimuth
Unknown
Elevation
Unknown
Doppler factor
Unknown
Orbital elements
Apogee altitude
541.047 km
Perigee altitude
538.874 km
Semi-major axis
6,918.097 km
Eccentricity
0.00016
Inclination
53.2168°
RAAN
44.6021°
Arg. of periapsis
108.9796°
True anomaly
251.11957°
Mean anomaly
251.1366°
Eccentric anomaly
251.12808°
Mean motion
3.77193 °/min
Orbital period
95.44 mins
BSTAR
-0.00044496
Loading maneuver chart data...
Computing Atmospheric mass density...
Loading historical data...
Loading historical data...
Loading historical data...
Loading historical data...
Loading historical data...
Loading historical data...
Loading historical data...

Documentation

Showing up to 5 results
|